Location: Casteau
(50.5142°N, 4.0161°E)
Time: 01:55:10
(UTC+00:00)

CZ-4C R/B - Pass Details

Date: 18 September 2020
Orbit: 626 x 1375 km, 63.4° (Epoch: 24 October)

Event Time Altitude Azimuth Distance (km) Brightness Sun altitude
Exits shadow 23:01:59 22° 43° (NE) 1,901 4.2 -37.5°
Drops below altitude 10° 23:04:06 10° 44° (NE) 2,694 5.1 -37.6°
Sets 23:06:57 0° 45° (NE) 3,770 6.0 -37.7°
